When you browse on this site, cookies collect data to enhance your experience and personalize the content and advertising you see.
Visit our Privacy Policy to learn more. By continuing to use the site, you agree to this use of cookies and data.
  • en Suisse
  • Liste des pays
  • À 7 jours
  • Température de l'eau
  • Carte météo
  • Widgets météo
  • user-avatar
    Se connecter

    Météo par heure à Zhemchuzhnikovo

    Ce jour, 21 Août, Mercredi

    Heure Température Précipitation Vent Pression Humidité
    00:00 +19°C° 0 mm 1 m/s 748 mmHg 80%
    01:00 +19°C° 0 mm 1 m/s 748 mmHg 82%
    02:00 +17°C° 0 mm 0 m/s 748 mmHg 84%
    03:00 +17°C° 0 mm 0 m/s 748 mmHg 84%
    04:00 +17°C° 0 mm 0 m/s 748 mmHg 84%
    05:00 +19°C° 0 mm 1 m/s 748 mmHg 85%
    06:00 +20°C° 0 mm 1 m/s 748 mmHg 81%
    07:00 +20°C° 0 mm 0 m/s 749 mmHg 76%
    08:00 +22°C° 0 mm 0 m/s 749 mmHg 72%
    09:00 +25°C° 0 mm 1 m/s 749 mmHg 69%
    10:00 +26°C° 0 mm 1 m/s 749 mmHg 66%
    11:00 +27°C° 0 mm 1 m/s 749 mmHg 62%
    12:00 +28°C° 0 mm 1 m/s 748 mmHg 61%
    13:00 +28°C° 0 mm 1 m/s 748 mmHg 59%
    14:00 +29°C° 0 mm 1 m/s 748 mmHg 57%
    15:00 +28°C° 0 mm 1 m/s 748 mmHg 60%
    16:00 +28°C° 0 mm 1 m/s 747 mmHg 64%
    17:00 +28°C° 0 mm 1 m/s 747 mmHg 67%
    18:00 +26°C° 0 mm 1 m/s 747 mmHg 71%
    19:00 +24°C° 0 mm 1 m/s 747 mmHg 75%
    20:00 +22°C° 0 mm 1 m/s 747 mmHg 79%
    21:00 +22°C° 0 mm 1 m/s 747 mmHg 81%
    22:00 +20°C° 0 mm 2 m/s 747 mmHg 82%
    23:00 +20°C° 0 mm 2 m/s 747 mmHg 84%

    Demain, 22 Août, Jeudi

    Heure Température Précipitation Vent Pression Humidité
    00:00 +20°C° 0 mm 2 m/s 747 mmHg 85%
    01:00 +19°C° 0 mm 2 m/s 747 mmHg 86%
    02:00 +19°C° 0 mm 2 m/s 747 mmHg 87%
    03:00 +19°C° 0 mm 2 m/s 746 mmHg 88%
    04:00 +18°C° 0 mm 2 m/s 746 mmHg 89%
    05:00 +18°C° 0 mm 2 m/s 746 mmHg 90%
    06:00 +20°C° 0 mm 2 m/s 746 mmHg 85%
    07:00 +23°C° 0 mm 2 m/s 746 mmHg 80%
    08:00 +24°C° 0 mm 2 m/s 746 mmHg 75%
    09:00 +25°C° 0 mm 2 m/s 746 mmHg 70%
    10:00 +26°C° 0 mm 2 m/s 746 mmHg 66%
    11:00 +27°C° 0 mm 2 m/s 746 mmHg 62%
    12:00 +28°C° 0.2 mm 2 m/s 746 mmHg 63%
    13:00 +28°C° 0.2 mm 3 m/s 746 mmHg 64%
    14:00 +28°C° 0.2 mm 3 m/s 746 mmHg 65%
    15:00 +26°C° 0.6 mm 4 m/s 746 mmHg 72%
    16:00 +25°C° 0.6 mm 4 m/s 746 mmHg 78%
    17:00 +22°C° 0.6 mm 5 m/s 746 mmHg 85%
    18:00 +20°C° 0.2 mm 5 m/s 746 mmHg 86%
    19:00 +19°C° 0.2 mm 5 m/s 747 mmHg 88%
    20:00 +16°C° 0.2 mm 5 m/s 747 mmHg 90%
    21:00 +17°C° 0 mm 4 m/s 748 mmHg 90%
    22:00 +15°C° 0 mm 4 m/s 748 mmHg 90%
    23:00 +15°C° 0 mm 4 m/s 748 mmHg 91%

    Après-demain, 23 Août, Vendredi

    Heure Température Précipitation Vent Pression Humidité
    00:00 +14°C° 0 mm 3 m/s 749 mmHg 91%
    01:00 +13°C° 0 mm 3 m/s 749 mmHg 92%
    02:00 +13°C° 0 mm 3 m/s 749 mmHg 93%
    03:00 +12°C° 0 mm 3 m/s 749 mmHg 93%
    04:00 +12°C° 0 mm 3 m/s 749 mmHg 94%
    05:00 +12°C° 0 mm 3 m/s 749 mmHg 94%
    06:00 +13°C° 0 mm 3 m/s 750 mmHg 89%
    07:00 +16°C° 0 mm 3 m/s 750 mmHg 84%
    08:00 +17°C° 0 mm 3 m/s 750 mmHg 79%
    09:00 +18°C° 0 mm 3 m/s 750 mmHg 74%
    10:00 +20°C° 0 mm 3 m/s 750 mmHg 68%
    11:00 +21°C° 0 mm 3 m/s 750 mmHg 62%
    12:00 +21°C° 0 mm 3 m/s 750 mmHg 61%
    13:00 +22°C° 0 mm 3 m/s 750 mmHg 59%
    14:00 +22°C° 0 mm 3 m/s 750 mmHg 57%
    15:00 +21°C° 0 mm 3 m/s 750 mmHg 60%
    16:00 +21°C° 0 mm 2 m/s 750 mmHg 64%
    17:00 +21°C° 0 mm 2 m/s 750 mmHg 67%
    18:00 +19°C° 0 mm 2 m/s 750 mmHg 71%
    19:00 +18°C° 0 mm 1 m/s 750 mmHg 74%
    20:00 +15°C° 0 mm 1 m/s 750 mmHg 77%
    21:00 +15°C° 0 mm 1 m/s 750 mmHg 79%
    22:00 +14°C° 0 mm 1 m/s 750 mmHg 80%
    23:00 +14°C° 0 mm 1 m/s 750 mmHg 82%

    24 Août, Samedi

    Heure Température Précipitation Vent Pression Humidité
    00:00 +13°C° 0 mm 1 m/s 750 mmHg 83%
    01:00 +13°C° 0 mm 1 m/s 750 mmHg 84%
    02:00 +13°C° 0 mm 1 m/s 750 mmHg 85%
    03:00 +12°C° 0 mm 1 m/s 750 mmHg 86%
    04:00 +12°C° 0 mm 1 m/s 750 mmHg 86%
    05:00 +12°C° 0 mm 1 m/s 750 mmHg 86%
    06:00 +14°C° 0 mm 1 m/s 750 mmHg 80%
    07:00 +16°C° 0 mm 1 m/s 750 mmHg 75%
    08:00 +19°C° 0 mm 1 m/s 751 mmHg 69%
    09:00 +21°C° 0 mm 1 m/s 751 mmHg 64%
    10:00 +20°C° 0 mm 0 m/s 750 mmHg 59%
    11:00 +22°C° 0 mm 0 m/s 750 mmHg 53%
    12:00 +24°C° 0 mm 1 m/s 750 mmHg 51%
    13:00 +24°C° 0 mm 1 m/s 750 mmHg 49%
    14:00 +24°C° 0 mm 1 m/s 750 mmHg 47%
    15:00 +24°C° 0 mm 1 m/s 749 mmHg 51%
    16:00 +23°C° 0 mm 1 m/s 749 mmHg 56%
    17:00 +23°C° 0 mm 1 m/s 749 mmHg 61%
    18:00 +21°C° 0 mm 1 m/s 749 mmHg 65%
    19:00 +19°C° 0 mm 1 m/s 748 mmHg 69%
    20:00 +16°C° 0 mm 1 m/s 748 mmHg 72%
    21:00 +16°C° 0 mm 1 m/s 748 mmHg 74%
    22:00 +15°C° 0 mm 1 m/s 748 mmHg 75%
    23:00 +15°C° 0 mm 2 m/s 748 mmHg 76%

    25 Août, Dimanche

    Heure Température Précipitation Vent Pression Humidité
    00:00 +15°C° 0 mm 2 m/s 748 mmHg 78%
    01:00 +14°C° 0 mm 2 m/s 748 mmHg 80%
    02:00 +14°C° 0 mm 2 m/s 748 mmHg 82%
    03:00 +13°C° 0 mm 2 m/s 748 mmHg 84%
    04:00 +13°C° 0 mm 2 m/s 747 mmHg 85%
    05:00 +13°C° 0 mm 2 m/s 747 mmHg 87%
    06:00 +15°C° 0 mm 2 m/s 747 mmHg 83%
    07:00 +17°C° 0 mm 2 m/s 747 mmHg 79%
    08:00 +18°C° 0 mm 2 m/s 747 mmHg 75%
    09:00 +20°C° 0 mm 3 m/s 747 mmHg 70%
    10:00 +21°C° 0 mm 3 m/s 747 mmHg 66%
    11:00 +22°C° 0 mm 3 m/s 747 mmHg 61%
    12:00 +24°C° 0 mm 3 m/s 747 mmHg 61%
    13:00 +23°C° 0 mm 4 m/s 747 mmHg 60%
    14:00 +23°C° 0 mm 4 m/s 747 mmHg 60%
    15:00 +22°C° 0.4 mm 4 m/s 746 mmHg 67%
    16:00 +21°C° 0.4 mm 4 m/s 746 mmHg 74%
    17:00 +20°C° 0.4 mm 4 m/s 746 mmHg 81%
    18:00 +18°C° 0.1 mm 3 m/s 747 mmHg 84%
    19:00 +17°C° 0.1 mm 3 m/s 747 mmHg 88%
    20:00 +16°C° 0.1 mm 3 m/s 747 mmHg 91%
    21:00 +14°C° 0 mm 3 m/s 748 mmHg 91%
    22:00 +13°C° 0 mm 3 m/s 748 mmHg 91%
    23:00 +12°C° 0 mm 3 m/s 749 mmHg 90%

    26 Août, Lundi

    Heure Température Précipitation Vent Pression Humidité
    00:00 +11°C° 0 mm 3 m/s 749 mmHg 91%
    01:00 +11°C° 0 mm 3 m/s 749 mmHg 92%
    02:00 +10°C° 0 mm 2 m/s 750 mmHg 94%
    03:00 +10°C° 0 mm 2 m/s 750 mmHg 94%
    04:00 +10°C° 0 mm 2 m/s 750 mmHg 94%
    05:00 +9°C° 0 mm 2 m/s 750 mmHg 95%
    06:00 +12°C° 0 mm 2 m/s 751 mmHg 89%
    07:00 +14°C° 0 mm 2 m/s 751 mmHg 84%
    08:00 +14°C° 0 mm 3 m/s 752 mmHg 79%
    09:00 +16°C° 0 mm 3 m/s 752 mmHg 73%
    10:00 +18°C° 0 mm 3 m/s 752 mmHg 66%
    11:00 +19°C° 0 mm 3 m/s 752 mmHg 59%
    12:00 +19°C° 0 mm 2 m/s 752 mmHg 57%
    13:00 +20°C° 0 mm 2 m/s 752 mmHg 54%
    14:00 +20°C° 0 mm 2 m/s 751 mmHg 52%
    15:00 +20°C° 0 mm 2 m/s 751 mmHg 56%
    16:00 +19°C° 0 mm 2 m/s 751 mmHg 60%
    17:00 +20°C° 0 mm 1 m/s 751 mmHg 64%
    18:00 +18°C° 0 mm 1 m/s 751 mmHg 68%
    19:00 +15°C° 0 mm 1 m/s 751 mmHg 72%
    20:00 +13°C° 0 mm 2 m/s 751 mmHg 76%
    21:00 +13°C° 0 mm 1 m/s 751 mmHg 77%
    22:00 +12°C° 0 mm 1 m/s 751 mmHg 79%
    23:00 +12°C° 0 mm 1 m/s 751 mmHg 81%
    Voir plus